NUSANTARA SATU (44048 NORAD) Tracking and Keplerian Element Data

This shows tracking and keplerian element data for the satellite.

Feedback or suggestion? Click here.




ElementValue
Catalog44048
NameNUSANTARA SATU
Epoch Orbit2497
Epoch Day353.93826666
Epoch Year2025
RAAN135.3513
Inclination0.0433
Eccentricity0.0002025
Argument of Perigee39.5963
Mean Anonmoly37.623
Mean Motion1.00270566
Decay Rate-2.1E-06
L11 44048U 19009A 25353.93826666 -.00000210 00000+0 00000+0 0 9995
L22 44048 0.0433 135.3513 0002025 39.5963 37.6230 1.00270566 24977



Live tracking and technical data element details for NUSANTARA SATU (NORAD 44048). NUSANTARA SATU can be tracked NOW for your location showing map with azimuth and elevation plus other details from your city location.







IsCatalogInMostPopularTable: catalog: 44048, numindb: 404
Update: records affected: 1



GetName: 44048 NUSANTARA SATU

Hit Count: updated at: Mon, 18 May 2026 09:40:28 GMT